Lihue, HI

4:12 PM HST on January 22, 2018 (GMT -1000)
Lihue

Weather History for PHLI - July, 2013

Change the Weather History Date:

Friday, July 26, 2013

  Actual Average Record
Temperature  
Mean Temperature 79 °F 79 °F  
Max Temperature 83 °F 84 °F 88 °F (1957)
Min Temperature 74 °F 74 °F 67 °F (1961)
Degree Days  
Heating Degree Days 0 0  
Month to date heating degree days 0 0  
Since 1 June heating degree days 0 0  
Since 1 July heating degree days 0 0  
Cooling Degree Days 14 14  
Month to date cooling degree days 311 364  
Year to date cooling degree days 1775 1997  
Since 1 June cooling degree days 693 758  
Growing Degree Days 28 (Base 50)    
Moisture  
Dew Point 68 °F    
Average Humidity 72    
Maximum Humidity 82    
Minimum Humidity 62    
Precipitation  
Precipitation 0.00 in 0.06 in 0.46 in (1974)
Month to date precipitation 0.63 1.52  
Year to date precipitation 16.13 18.97  
Snow  
Snow 0.00 in - - ()
Month to date snowfall 0.0  
Since 1 June snowfall 0.0  
Since 1 July snowfall 0.0  
Snow Depth 0.00 in    
Sea Level Pressure  
Sea Level Pressure 30.02 in    
Wind  
Wind Speed 11 mph (ENE)    
Max Wind Speed 15 mph    
Max Gust Speed 18 mph    
Visibility 10 miles    
Events      
T = Trace of Precipitation, MM = Missing Value Source: NWS Daily Summary

Daily Weather History Graph

Daily Weather History Graph

Search for Another Location

Airport or City:

Trip Planner

Search our weather history database for the weather conditions in past years. The results will help you decide how hot, cold, wet, or windy it might be!

Date:

Astronomy

Jul. 26, 2013 Rise Set
Actual Time 6:07 AM HST 7:19 PM HST
Civil Twilight 5:43 AM HST 7:44 PM HST
Nautical Twilight 5:14 AM HST 8:12 PM HST
Astronomical Twilight 4:45 AM HST 8:42 PM HST
Moon 10:26 PM HST (7/26) 10:14 AM HST (7/26)
Length of Visible Light 14h 00m
Length of Day
13h 12m
Waning Gibbous, 78% of the Moon is Illuminated
Jul 26
Waning Gibbous
Jul 29
Last Quarter
Aug 6
New
Aug 14
First Quarter
Aug 20
Full

Hourly Weather History & Observations

Time (HST) Temp. Heat Index Dew Point Humidity Pressure Visibility Wind Dir Wind Speed Gust Speed Precip Events Conditions
12:05 AM 75.2 °F - 68.0 °F 78% 30.00 in 10.0 mi ENE 12.7 mph - N/A   Scattered Clouds
12:53 AM 75.0 °F - 69.1 °F 82% 29.99 in 10.0 mi ENE 13.8 mph - N/A   Partly Cloudy
1:53 AM 75.0 °F - 68.0 °F 79% 29.99 in 10.0 mi ENE 10.4 mph - N/A   Scattered Clouds
2:53 AM 75.0 °F - 66.9 °F 76% 29.98 in 10.0 mi ENE 10.4 mph - N/A   Mostly Cloudy
3:53 AM 75.0 °F - 68.0 °F 79% 29.99 in 10.0 mi ENE 12.7 mph - N/A   Scattered Clouds
4:53 AM 75.0 °F - 66.9 °F 76% 29.98 in 10.0 mi ENE 11.5 mph - N/A   Partly Cloudy
5:53 AM 73.9 °F - 66.9 °F 79% 29.99 in 10.0 mi ENE 10.4 mph - N/A   Clear
6:53 AM 75.0 °F - 68.0 °F 79% 30.01 in 10.0 mi ENE 9.2 mph - N/A   Mostly Cloudy
7:40 AM 77.0 °F - 69.8 °F 78% 30.02 in 10.0 mi ENE 9.2 mph - N/A   Overcast
7:50 AM 78.8 °F - 69.8 °F 74% 30.02 in 10.0 mi ENE 9.2 mph - N/A   Overcast
7:53 AM 78.1 °F - 68.0 °F 71% 30.01 in 10.0 mi ENE 10.4 mph - N/A   Overcast
8:53 AM 79.0 °F - 68.0 °F 69% 30.02 in 10.0 mi ENE 12.7 mph - N/A   Mostly Cloudy
9:53 AM 80.1 °F 82.3 °F 66.9 °F 64% 30.04 in 10.0 mi East 11.5 mph - N/A   Scattered Clouds
10:53 AM 81.0 °F 83.8 °F 68.0 °F 65% 30.04 in 10.0 mi East 10.4 mph - N/A   Partly Cloudy
11:53 AM 82.0 °F 84.9 °F 68.0 °F 62% 30.04 in 10.0 mi ENE 12.7 mph - N/A   Partly Cloudy
12:53 PM 82.9 °F 85.8 °F 68.0 °F 60% 30.04 in 10.0 mi ENE 10.4 mph - N/A   Partly Cloudy
1:53 PM 81.0 °F 83.3 °F 66.9 °F 62% 30.03 in 10.0 mi ENE 11.5 mph - N/A   Partly Cloudy
2:53 PM 82.0 °F 84.9 °F 68.0 °F 62% 30.03 in 10.0 mi NE 12.7 mph - N/A   Clear
3:53 PM 80.1 °F 82.9 °F 69.1 °F 69% 30.02 in 10.0 mi NE 13.8 mph - N/A   Overcast
4:53 PM 78.1 °F - 69.1 °F 74% 30.02 in 10.0 mi NE 15.0 mph - N/A   Overcast
5:53 PM 77.0 °F - 69.1 °F 76% 30.02 in 10.0 mi NE 12.7 mph - N/A   Overcast
6:53 PM 77.0 °F - 69.1 °F 76% 30.03 in 10.0 mi NE 13.8 mph - N/A   Overcast
7:53 PM 77.0 °F - 69.1 °F 76% 30.04 in 10.0 mi NE 15.0 mph - N/A   Overcast
8:53 PM 75.9 °F - 69.1 °F 79% 30.05 in 10.0 mi NE 16.1 mph - N/A   Overcast
9:53 PM 75.9 °F - 70.0 °F 82% 30.06 in 10.0 mi ENE 15.0 mph - N/A   Scattered Clouds
10:53 PM 75.0 °F - 69.1 °F 82% 30.07 in 10.0 mi ENE 15.0 mph - N/A   Clear
11:53 PM 75.0 °F - 70.0 °F 84% 30.06 in 10.0 mi ENE 15.0 mph - N/A   Partly Cloudy